{"data":{"norad_id":56768,"intl_designator":"2023-078B","name":"STARLINK-6198","alt_names":[],"object_type":"PAYLOAD","status":"ACTIVE","operator":null,"country":"US","launch_date":"2023-05-31","launch_site_code":"AFWTR","launch_vehicle":null,"mission":null,"orbit_class":"UNKNOWN","rcs_meters":null,"size_class":null,"mass_kg":null,"dimensions":null,"purposes":["comms"],"wikipedia_slug":null,"has_3d_model":false,"image_url":null,"decayed_at":null,"tle_current":{"epoch":"2026-09-20T22:00:03.000096Z","epoch_age_seconds":78942,"freshness":"FRESH","line1":"1 56768U 23078B   26263.91670139  .00001517  00000+0  10902-3 0  9995","line2":"2 56768  70.0005 191.9284 0002917 263.1732 115.2541 15.06578500  5767","mean_motion":15.065785,"eccentricity":0.0002917,"inclination_deg":70.0005,"raan_deg":191.9284,"arg_perigee_deg":263.1732,"mean_anomaly_deg":115.2541,"bstar":0.00010902,"rev_number":576,"period_min":95.580814408277,"perigee_km":544.64457055478,"apogee_km":548.6844997704,"semimajor_km":6924.8015351626,"source":"CELESTRAK","updated_at":"2026-09-21T09:00:33.485359Z"}}}